| time (UTC) | temp F | wind direction | speed MPH | gust MPH | rain 1hr in | rain 24hr in | rain mn in | humidity % | barometer mb |
| 20260505054545 | 67 | 231 | 11.0 | 14.0 | 0.00 | 0.00 | 0.00 | 27 | 1004.0 |
| 20260505054043 | 67 | 230 | 11.0 | 14.0 | 0.00 | 0.00 | 0.00 | 26 | 1003.9 |
| 20260505053540 | 68 | 230 | 10.0 | 14.0 | 0.00 | 0.00 | 0.00 | 26 | 1003.9 |
| 20260505053036 | 68 | 226 | 9.0 | 15.0 | 0.00 | 0.00 | 0.00 | 25 | 1004.0 |
| 20260505052533 | 68 | 225 | 11.0 | 14.0 | 0.00 | 0.00 | 0.00 | 25 | 1004.1 |
| 20260505052031 | 68 | 234 | 11.0 | 12.0 | 0.00 | 0.00 | 0.00 | 25 | 1003.9 |
| 20260505051527 | 68 | 230 | 9.0 | 12.0 | 0.00 | 0.00 | 0.00 | 25 | 1004.3 |
| 20260505051026 | 69 | 228 | 9.0 | 13.0 | 0.00 | 0.00 | 0.00 | 24 | 1004.4 |
| 20260505050524 | 68 | 231 | 9.0 | 11.0 | 0.00 | 0.00 | 0.00 | 25 | 1003.9 |
| 20260505041451 | 70 | 246 | 14.0 | 20.0 | 0.00 | 0.00 | 0.00 | 24 | 1004.3 |
| 20260505040948 | 70 | 246 | 17.0 | 22.0 | 0.00 | 0.00 | 0.00 | 24 | 1004.3 |
| 20260505040446 | 70 | 249 | 13.0 | 19.0 | 0.00 | 0.00 | 0.00 | 24 | 1004.1 |
| 20260505035943 | 70 | 245 | 11.0 | 18.0 | 0.00 | 0.00 | 0.00 | 23 | 1004.3 |
| 20260505035439 | 70 | 247 | 13.0 | 19.0 | 0.00 | 0.00 | 0.00 | 24 | 1004.1 |
| 20260505034936 | 70 | 258 | 11.0 | 15.0 | 0.00 | 0.00 | 0.00 | 24 | 1004.1 |
| 20260505034432 | 71 | 245 | 11.0 | 16.0 | 0.00 | 0.00 | 0.00 | 23 | 1004.3 |
| 20260505033930 | 71 | 251 | 11.0 | 18.0 | 0.00 | 0.00 | 0.00 | 23 | 1004.1 |
| 20260505033426 | 71 | 245 | 16.0 | 19.0 | 0.00 | 0.00 | 0.00 | 23 | 1003.9 |
| 20260505032924 | 71 | 244 | 17.0 | 19.0 | 0.00 | 0.00 | 0.00 | 22 | 1004.1 |
| 20260505032421 | 72 | 238 | 15.0 | 19.0 | 0.00 | 0.00 | 0.00 | 22 | 1004.0 |
| 20260505031918 | 72 | 237 | 18.0 | 22.0 | 0.00 | 0.00 | 0.00 | 22 | 1004.1 |
| 20260505031415 | 71 | 237 | 14.0 | 19.0 | 0.00 | 0.00 | 0.00 | 22 | 1003.9 |
| 20260505030912 | 70 | 233 | 15.0 | 18.0 | 0.00 | 0.00 | 0.00 | 23 | 1004.1 |
| 20260505030408 | 70 | 225 | 14.0 | 17.0 | 0.00 | 0.00 | 0.00 | 23 | 1004.0 |
| 20260505025903 | 70 | 231 | 13.0 | 17.0 | 0.00 | 0.00 | 0.00 | 23 | 1003.8 |
| 20260505025401 | 70 | 234 | 12.0 | 16.0 | 0.00 | 0.00 | 0.00 | 24 | 1003.9 |
| 20260505024900 | 70 | 225 | 10.0 | 13.0 | 0.00 | 0.00 | 0.00 | 24 | 1004.0 |
| 20260505024357 | 70 | 227 | 11.0 | 16.0 | 0.00 | 0.00 | 0.00 | 24 | 1003.8 |
| 20260505023853 | 70 | 236 | 9.0 | 11.0 | 0.00 | 0.00 | 0.00 | 24 | 1003.6 |
| 20260505023351 | 70 | 240 | 10.0 | 12.0 | 0.00 | 0.00 | 0.00 | 24 | 1003.8 |
| 20260505022848 | 70 | 233 | 7.0 | 11.0 | 0.00 | 0.00 | 0.00 | 24 | 1003.6 |
| 20260505022345 | 70 | 231 | 8.0 | 10.0 | 0.00 | 0.00 | 0.00 | 24 | 1003.7 |
| 20260505021842 | 71 | 237 | 11.0 | 13.0 | 0.00 | 0.00 | 0.00 | 24 | 1003.7 |
| 20260505021338 | 71 | 230 | 11.0 | 12.0 | 0.00 | 0.00 | 0.00 | 24 | 1003.5 |
| 20260505020834 | 72 | 229 | 13.0 | 16.0 | 0.00 | 0.00 | 0.00 | 23 | 1003.6 |
| 20260505020330 | 72 | 235 | 9.0 | 15.0 | 0.00 | 0.00 | 0.00 | 24 | 1003.3 |
| 20260505015827 | 72 | 235 | 11.0 | 15.0 | 0.00 | 0.00 | 0.00 | 23 | 1003.5 |
| 20260505015324 | 73 | 235 | 14.0 | 20.0 | 0.00 | 0.00 | 0.00 | 23 | 1003.3 |
| 20260505014821 | 73 | 238 | 15.0 | 18.0 | 0.00 | 0.00 | 0.00 | 23 | 1003.1 |
| 20260505014318 | 73 | 234 | 17.0 | 19.0 | 0.00 | 0.00 | 0.00 | 23 | 1003.1 |
| 20260505013815 | 73 | 234 | 18.0 | 20.0 | 0.00 | 0.00 | 0.00 | 23 | 1003.2 |
| 20260505013312 | 74 | 246 | 13.0 | 20.0 | 0.00 | 0.00 | 0.00 | 23 | 1003.1 |
| 20260505012811 | 74 | 241 | 17.0 | 23.0 | 0.00 | 0.00 | 0.00 | 22 | 1003.1 |
| 20260505012308 | 74 | 238 | 17.0 | 24.0 | 0.00 | 0.00 | 0.00 | 22 | 1003.2 |
| 20260505011803 | 75 | 238 | 17.0 | 23.0 | 0.00 | 0.00 | 0.00 | 22 | 1003.1 |
| 20260505011301 | 75 | 235 | 20.0 | 24.0 | 0.00 | 0.00 | 0.00 | 22 | 1003.3 |
| 20260505010756 | 75 | 241 | 22.0 | 25.0 | 0.00 | 0.00 | 0.00 | 21 | 1003.5 |
| 20260505010253 | 75 | 243 | 16.0 | 21.0 | 0.00 | 0.00 | 0.00 | 22 | 1003.5 |
| 20260505005749 | 75 | 240 | 21.0 | 27.0 | 0.00 | 0.00 | 0.00 | 21 | 1003.6 |
| 20260505005246 | 75 | 242 | 22.0 | 27.0 | 0.00 | 0.00 | 0.00 | 21 | 1003.3 |
| 20260505004743 | 76 | 231 | 22.0 | 26.0 | 0.00 | 0.00 | 0.00 | 21 | 1003.5 |
| 20260505004239 | 76 | 240 | 24.0 | 28.0 | 0.00 | 0.00 | 0.00 | 21 | 1003.5 |
| 20260505003737 | 76 | 243 | 20.0 | 27.0 | 0.00 | 0.00 | 0.00 | 21 | 1003.3 |
| 20260505003234 | 76 | 239 | 22.0 | 30.0 | 0.00 | 0.00 | 0.00 | 21 | 1003.7 |
| 20260505002730 | 76 | 240 | 33.0 | 35.0 | 0.00 | 0.00 | 0.00 | 21 | 1003.6 |
| 20260505002228 | 77 | 238 | 27.0 | 32.0 | 0.00 | 0.00 | 0.00 | 21 | 1003.2 |
| 20260505001725 | 77 | 236 | 25.0 | 33.0 | 0.00 | 0.00 | 0.00 | 20 | 1003.7 |
| 20260505001223 | 77 | 251 | 24.0 | 35.0 | 0.00 | 0.00 | 0.00 | 20 | 1003.9 |
| 20260505000720 | 78 | 251 | 22.0 | 29.0 | 0.00 | 0.00 | 0.00 | 15 | 1003.7 |
| 20260505000218 | 78 | 251 | 20.0 | 30.0 | 0.00 | 0.00 | 0.00 | 14 | 1003.6 |
| 20260504235714 | 78 | 266 | 18.0 | 29.0 | 0.00 | 0.00 | 0.00 | 14 | 1003.6 |
| 20260504235210 | 78 | 255 | 27.0 | 32.0 | 0.00 | 0.00 | 0.00 | 13 | 1003.8 |
| 20260504234708 | 78 | 256 | 22.0 | 34.0 | 0.00 | 0.00 | 0.00 | 13 | 1003.8 |
| 20260504234204 | 78 | 266 | 18.0 | 29.0 | 0.00 | 0.00 | 0.00 | 13 | 1003.9 |
| 20260504233700 | 78 | 265 | 21.0 | 27.0 | 0.00 | 0.00 | 0.00 | 13 | 1003.9 |
| 20260504233156 | 78 | 247 | 27.0 | 36.0 | 0.00 | 0.00 | 0.00 | 13 | 1003.8 |
| 20260504232654 | 78 | 250 | 28.0 | 35.0 | 0.00 | 0.00 | 0.00 | 13 | 1003.9 |
| 20260504232151 | 78 | 260 | 27.0 | 32.0 | 0.00 | 0.00 | 0.00 | 13 | 1003.9 |
| 20260504231648 | 78 | 254 | 26.0 | 32.0 | 0.00 | 0.00 | 0.00 | 13 | 1004.1 |
| 20260504231144 | 78 | 241 | 32.0 | 38.0 | 0.00 | 0.00 | 0.00 | 13 | 1004.0 |
| 20260504230640 | 78 | 247 | 26.0 | 29.0 | 0.00 | 0.00 | 0.00 | 13 | 1003.8 |
| 20260504230139 | 78 | 254 | 21.0 | 31.0 | 0.00 | 0.00 | 0.00 | 13 | 1003.8 |
| 20260504225637 | 78 | 251 | 27.0 | 30.0 | 0.00 | 0.00 | 0.00 | 12 | 1003.7 |
| 20260504225133 | 78 | 258 | 29.0 | 35.0 | 0.00 | 0.00 | 0.00 | 12 | 1003.9 |
| 20260504224630 | 79 | 250 | 36.0 | 38.0 | 0.00 | 0.00 | 0.00 | 11 | 1004.0 |
| 20260504224126 | 79 | 262 | 21.0 | 30.0 | 0.00 | 0.00 | 0.00 | 13 | 1003.9 |
| 20260504223624 | 80 | 266 | 21.0 | 40.0 | 0.00 | 0.00 | 0.00 | 13 | 1004.0 |
| 20260504223119 | 80 | 263 | 20.0 | 31.0 | 0.00 | 0.00 | 0.00 | 13 | 1003.8 |
| 20260504222617 | 80 | 251 | 23.0 | 27.0 | 0.00 | 0.00 | 0.00 | 13 | 1004.0 |
| 20260504222114 | 80 | 255 | 16.0 | 25.0 | 0.00 | 0.00 | 0.00 | 13 | 1004.0 |
| 20260504221611 | 80 | 273 | 17.0 | 24.0 | 0.00 | 0.00 | 0.00 | 13 | 1004.4 |
| 20260504221108 | 80 | 260 | 18.0 | 30.0 | 0.00 | 0.00 | 0.00 | 13 | 1003.9 |
| 20260504220604 | 80 | 248 | 25.0 | 34.0 | 0.00 | 0.00 | 0.00 | 12 | 1004.3 |
| 20260504215558 | 80 | 264 | 20.0 | 25.0 | 0.00 | 0.00 | 0.00 | 14 | 1004.0 |
| 20260504215055 | 80 | 250 | 26.0 | 31.0 | 0.00 | 0.00 | 0.00 | 13 | 1004.0 |
| 20260504214551 | 80 | 268 | 22.0 | 26.0 | 0.00 | 0.00 | 0.00 | 14 | 1003.9 |
| 20260504214048 | 80 | 238 | 27.0 | 37.0 | 0.00 | 0.00 | 0.00 | 13 | 1004.3 |
| 20260504213544 | 80 | 257 | 21.0 | 35.0 | 0.00 | 0.00 | 0.00 | 14 | 1004.4 |
| 20260504213041 | 80 | 255 | 23.0 | 36.0 | 0.00 | 0.00 | 0.00 | 13 | 1004.4 |
| 20260504212537 | 80 | 254 | 20.0 | 37.0 | 0.00 | 0.00 | 0.00 | 14 | 1004.4 |
| 20260504212034 | 80 | 251 | 27.0 | 30.0 | 0.00 | 0.00 | 0.00 | 14 | 1004.0 |
| 20260504211531 | 81 | 235 | 23.0 | 32.0 | 0.00 | 0.00 | 0.00 | 14 | 1004.1 |
| 20260504211028 | 80 | 238 | 30.0 | 36.0 | 0.00 | 0.00 | 0.00 | 14 | 1004.4 |
| 20260504210525 | 80 | 243 | 26.0 | 30.0 | 0.00 | 0.00 | 0.00 | 14 | 1004.4 |
| 20260504210022 | 80 | 243 | 32.0 | 34.0 | 0.00 | 0.00 | 0.00 | 14 | 1004.5 |
| 20260504205520 | 81 | 251 | 26.0 | 32.0 | 0.00 | 0.00 | 0.00 | 14 | 1004.6 |
| 20260504205018 | 81 | 248 | 19.0 | 32.0 | 0.00 | 0.00 | 0.00 | 15 | 1004.6 |
| 20260504204515 | 81 | 242 | 27.0 | 30.0 | 0.00 | 0.00 | 0.00 | 14 | 1004.6 |
| 20260504204014 | 82 | 245 | 24.0 | 31.0 | 0.00 | 0.00 | 0.00 | 14 | 1004.9 |
| 20260504203512 | 82 | 250 | 26.0 | 30.0 | 0.00 | 0.00 | 0.00 | 15 | 1004.8 |
| 20260504203009 | 81 | 250 | 23.0 | 32.0 | 0.00 | 0.00 | 0.00 | 15 | 1004.9 |
| 20260504202504 | 81 | 254 | 15.0 | 24.0 | 0.00 | 0.00 | 0.00 | 17 | 1004.9 |
| 20260504202001 | 80 | 222 | 8.0 | 16.0 | 0.00 | 0.00 | 0.00 | 22 | 1005.0 |
| 20260504201458 | 81 | 283 | 9.0 | 20.0 | 0.00 | 0.00 | 0.00 | 22 | 1005.2 |
| 20260504200956 | 82 | 251 | 18.0 | 22.0 | 0.00 | 0.00 | 0.00 | 21 | 1005.0 |
| 20260504200453 | 80 | 278 | 7.0 | 15.0 | 0.00 | 0.00 | 0.00 | 24 | 1005.3 |
| 20260504195949 | 80 | 252 | 13.0 | 21.0 | 0.00 | 0.00 | 0.00 | 24 | 1005.3 |
| 20260504195445 | 81 | 242 | 21.0 | 26.0 | 0.00 | 0.00 | 0.00 | 23 | 1005.8 |
| 20260504194942 | 80 | 236 | 20.0 | 30.0 | 0.00 | 0.00 | 0.00 | 24 | 1005.6 |
| 20260504194438 | 82 | 247 | 24.0 | 31.0 | 0.00 | 0.00 | 0.00 | 24 | 1005.5 |
| 20260504193934 | 80 | 267 | 12.0 | 21.0 | 0.00 | 0.00 | 0.00 | 25 | 1005.6 |
| 20260504193431 | 80 | 269 | 10.0 | 21.0 | 0.00 | 0.00 | 0.00 | 24 | 1005.6 |
| 20260504192930 | 79 | 275 | 11.0 | 27.0 | 0.00 | 0.00 | 0.00 | 24 | 1006.1 |
| 20260504192427 | 79 | 278 | 11.0 | 18.0 | 0.00 | 0.00 | 0.00 | 26 | 1006.3 |
| 20260504191926 | 78 | 260 | 20.0 | 24.0 | 0.00 | 0.00 | 0.00 | 26 | 1006.0 |
| 20260504191424 | 79 | 248 | 11.0 | 17.0 | 0.00 | 0.00 | 0.00 | 24 | 1006.2 |
| 20260504190918 | 79 | 241 | 24.0 | 24.0 | 0.00 | 0.00 | 0.00 | 25 | 1006.4 |
| 20260504190414 | 77 | 295 | 15.0 | 23.0 | 0.00 | 0.00 | 0.00 | 26 | 1006.3 |
| 20260504185911 | 78 | 277 | 19.0 | 22.0 | 0.00 | 0.00 | 0.00 | 26 | 1006.5 |
| 20260504185409 | 78 | 253 | 8.0 | 25.0 | 0.00 | 0.00 | 0.00 | 26 | 1006.5 |
| 20260504184904 | 78 | 245 | 19.0 | 36.0 | 0.00 | 0.00 | 0.00 | 25 | 1006.5 |
| 20260504184400 | 79 | 258 | 20.0 | 24.0 | 0.00 | 0.00 | 0.00 | 25 | 1006.3 |
| 20260504183856 | 80 | 246 | 20.0 | 23.0 | 0.00 | 0.00 | 0.00 | 25 | 1006.5 |
| 20260504183354 | 78 | 288 | 14.0 | 25.0 | 0.00 | 0.00 | 0.00 | 25 | 1006.5 |
| 20260504182851 | 78 | 263 | 14.0 | 19.0 | 0.00 | 0.00 | 0.00 | 25 | 1006.4 |
| 20260504182349 | 79 | 252 | 16.0 | 21.0 | 0.00 | 0.00 | 0.00 | 25 | 1006.7 |
| 20260504181845 | 78 | 285 | 17.0 | 26.0 | 0.00 | 0.00 | 0.00 | 26 | 1007.0 |
| 20260504181343 | 78 | 275 | 16.0 | 22.0 | 0.00 | 0.00 | 0.00 | 26 | 1006.9 |
| 20260504180841 | 77 | 293 | 22.0 | 25.0 | 0.00 | 0.00 | 0.00 | 27 | 1006.9 |
| 20260504180339 | 79 | 241 | 26.0 | 33.0 | 0.00 | 0.00 | 0.00 | 26 | 1007.2 |
| 20260504175837 | 78 | 273 | 14.0 | 24.0 | 0.00 | 0.00 | 0.00 | 29 | 1007.2 |
| 20260504175334 | 79 | 265 | 12.0 | 30.0 | 0.00 | 0.00 | 0.00 | 28 | 1007.3 |
| 20260504174832 | 78 | 254 | 17.0 | 26.0 | 0.00 | 0.00 | 0.00 | 29 | 1007.3 |
| 20260504174329 | 76 | 275 | 13.0 | 24.0 | 0.00 | 0.00 | 0.00 | 31 | 1007.3 |
| 20260504173826 | 78 | 274 | 17.0 | 21.0 | 0.00 | 0.00 | 0.00 | 30 | 1007.4 |
| 20260504173323 | 77 | 265 | 11.0 | 17.0 | 0.00 | 0.00 | 0.00 | 32 | 1007.5 |
| 20260504172820 | 77 | 264 | 18.0 | 23.0 | 0.00 | 0.00 | 0.00 | 32 | 1007.4 |
| 20260504172316 | 76 | 255 | 18.0 | 21.0 | 0.00 | 0.00 | 0.00 | 33 | 1007.7 |
| 20260504171812 | 77 | 275 | 16.0 | 24.0 | 0.00 | 0.00 | 0.00 | 31 | 1007.5 |
| 20260504171310 | 76 | 268 | 15.0 | 25.0 | 0.00 | 0.00 | 0.00 | 33 | 1007.9 |
| 20260504170807 | 77 | 261 | 14.0 | 25.0 | 0.00 | 0.00 | 0.00 | 32 | 1007.8 |
| 20260504170304 | 77 | 255 | 19.0 | 24.0 | 0.00 | 0.00 | 0.00 | 32 | 1008.0 |
| 20260504160222 | 73 | 260 | 21.0 | 29.0 | 0.00 | 0.00 | 0.00 | 37 | 1008.6 |
| 20260504150652 | 69 | 257 | 17.0 | 20.0 | 0.00 | 0.00 | 0.00 | 46 | 1008.9 |
| 20260504150150 | 68 | 253 | 15.0 | 22.0 | 0.00 | 0.00 | 0.00 | 47 | 1008.8 |
| 20260504141118 | 61 | 261 | 14.0 | 18.0 | 0.00 | 0.00 | 0.00 | 62 | 1008.8 |
| 20260504140615 | 61 | 251 | 14.0 | 17.0 | 0.00 | 0.00 | 0.00 | 64 | 1008.9 |
| 20260504140111 | 60 | 261 | 17.0 | 21.0 | 0.00 | 0.00 | 0.00 | 65 | 1008.9 |
| 20260504130539 | 57 | 252 | 23.0 | 27.0 | 0.00 | 0.00 | 0.00 | 70 | 1008.0 |
| 20260504110426 | 55 | 245 | 16.0 | 20.0 | 0.00 | 0.00 | 0.00 | 72 | 1007.5 |
| 20260504100349 | 55 | 248 | 15.0 | 18.0 | 0.00 | 0.00 | 0.00 | 68 | 1007.8 |
| 20260504081742 | 57 | 248 | 11.0 | 16.0 | 0.00 | 0.00 | 0.00 | 65 | 1009.0 |
| 20260504081238 | 57 | 238 | 8.0 | 9.0 | 0.00 | 0.00 | 0.00 | 65 | 1009.0 |
| 20260504080735 | 57 | 242 | 10.0 | 13.0 | 0.00 | 0.00 | 0.00 | 64 | 1009.1 |
| 20260504080232 | 58 | 242 | 7.0 | 14.0 | 0.00 | 0.00 | 0.00 | 63 | 1008.9 |
| 20260504070159 | 57 | 234 | 13.0 | 19.0 | 0.00 | 0.00 | 0.00 | 65 | 1009.6 |
| 20260504060120 | 58 | 223 | 13.0 | 18.0 | 0.00 | 0.00 | 0.00 | 63 | 1010.1 |